Regional Weather Roundup
Issued by NWS

Home | Current Version | Previous Version | Text Only | Print | Product List | Glossary On
Versions: 1 2 3 4 5 6 7 8 9 10 11 12 13 14 15 16 17 18 19 20 21 22 23 24 25 26 27 28 29 30 31 32 33 34 35 36 37 38 39 40 41 42 43 44 45 46 47 48 49 50
000
ASUS43 KLSX 020459
RWRMO

WEATHER SUMMARY FOR MISSOURI
NATIONAL WEATHER SERVICE SPRINGFIELD MO
1100 PM CST SUN MAR 01 2015

NOTE: "FAIR" INDICATES FEW OR NO CLOUDS BELOW 12,000 FEET WITH NO
       SIGNIFICANT WEATHER AND/OR OBSTRUCTIONS TO VISIBILITY.
       CURRENT SKY AND/OR WEATHER CONDITIONS ARE NOT AVAILABLE FOR
       CHILLICOTHE AND FARMINGTON.

MOZ001>031-035>038-043-044-053-054-020600-
...NORTHERN AND WESTERN MISSOURI...

CITY           SKY/WX    TMP DP  RH WIND       PRES   REMARKS
KANSAS CTY INT PTCLDY    26  19  74 SW3       30.48R
KANSAS C DTWN  PTCLDY    26  22  84 CALM      30.49R
LEE`S SUMMIT   PTCLDY    26  19  74 CALM      30.48R
ST JOSEPH      MOCLDY    26  22  84 S3        30.49R
CHILLICOTHE      N/A     27  21  78 CALM      30.49R
KIRKSVILLE     CLOUDY    22  19  89 CALM      30.46F

$$
MOZ066>068-077>081-088>096-101>105-020600-
...SOUTHWEST MISSOURI...

CITY           SKY/WX    TMP DP  RH WIND       PRES   REMARKS
SPRINGFIELD    PTCLDY    26  21  81 N6        30.46R WCI  19
JOPLIN         PTCLDY    24  20  84 NE5       30.49R WCI  18

$$
MOZ032>034-039>042-045>050-055>058-069>072-020600-
...CENTRAL MISSOURI...

CITY           SKY/WX    TMP DP  RH WIND       PRES   REMARKS
COLUMBIA       PTCLDY    21  18  88 NW5       30.48R WCI  15
JEFFERSON CITY PTCLDY    18  15  88 CALM      30.51R
ROLLA          FAIR      13  11  92 NW3       30.44S FOG
SEDALIA        PTCLDY    25  18  74 W5        30.50R WCI  19
OSAGE BEACH    PTCLDY    19  18  93 CALM      30.48R

$$
MOZ051-052-059>065-020600-
...EAST CENTRAL MISSOURI...

CITY           SKY/WX    TMP DP  RH WIND       PRES   REMARKS
ST LOUIS INTL  PTCLDY    24  19  81 CALM      30.49R
SPIRIT OF STL  PTCLDY    18  14  84 CALM      30.49R FOG
ST CHARLES     PTCLDY    17  15  92 CALM      30.49R

$$
MOZ072>076-082>087-097>100-106>115-020600-
...SOUTH CENTRAL AND SOUTHEAST MISSOURI...

CITY           SKY/WX    TMP DP  RH WIND       PRES   REMARKS
CAPE GIRARDEAU CLOUDY    32  27  81 N9        30.46S WCI  24
FARMINGTON     PTCLDY    28  21  74 N6        30.48R WCI  22
POPLAR BLUFF   CLOUDY    34  27  75 N12       30.43S WCI  25
WEST PLAINS    CLOUDY    30  22  72 N8        30.44R WCI  22

$$


USA.gov is the U.S. government's official web portal to all federal, state and local government web resources and services.